Voltar ao catálogo

NIMBUS 2 DEB

AtivoLEO
NORAD 28619·DEBRIS·🇺🇸 United States

Lançado May 15, 1966 de Vandenberg Space Force Base

Loading…

Próximas Passagens (próximas 24 horas)

TLE

AtualizadoSource: Space-Track

Época: Sep 13, 2026, 08:21 UTC

1 28619U 66040AJ  26256.34806978  .00003688  00000-0  29792-2 0  9994
2 28619 100.3104  88.2035 0033896  20.7057 103.2649 13.90744769597098

Acompanhe NIMBUS 2 DEB em tempo real com AllMySat

Download on the App Store